Location: Unspecified
(0.0000°N, 0.0000°E)
Time: 15:38:03
(UTC+00:00)

Courier 1B Rocket - All Passes

Search period start: 11 December 2023 00:00
Search period end: 21 December 2023 00:00
Orbit: 920 x 1201 km, 28.2° (Epoch: 10 December)

Date Brightness Start Highest point End Pass type
(mag) Time Alt. Az. Time Alt. Az. Time Alt. Az.
11 Dec - 02:24:31 10° S 02:28:21 14° SSE 02:32:13 10° SE visible
11 Dec - 04:15:38 10° SW 04:22:55 42° SSE 04:30:11 10° E visible
11 Dec - 06:09:05 10° WSW 06:16:52 64° NNW 06:24:22 10° NE daylight
11 Dec - 08:05:33 10° WNW 08:10:56 20° NNW 08:16:09 10° NNE daylight
11 Dec - 15:46:58 10° NNW 15:52:15 28° NNE 15:57:31 10° E daylight
11 Dec - 17:39:28 10° WNW 17:45:41 75° SSW 17:52:05 10° SE daylight
11 Dec - 19:34:48 10° WSW 19:39:22 21° SSW 19:44:08 10° SSE visible
12 Dec - 03:14:52 10° SSW 03:21:23 29° SSE 03:27:58 10° E visible
12 Dec - 05:07:33 10° WSW 05:15:26 88° SSE 05:23:11 10° ENE visible
12 Dec - 07:02:47 10° W 07:09:24 30° NNW 07:15:48 10° NNE daylight
12 Dec - 14:46:38 10° NNW 14:50:59 19° NNE 14:55:15 10° ENE daylight
12 Dec - 16:38:23 10° NW 16:44:37 71° NNE 16:50:53 10° ESE daylight
12 Dec - 18:32:41 10° W 18:38:05 30° SSW 18:43:38 10° SSE visible
13 Dec - 02:14:24 10° SSW 02:19:46 20° SSE 02:25:14 10° ESE visible
13 Dec - 04:06:19 10° SW 04:13:59 62° SSE 04:21:42 10° ENE visible
13 Dec - 06:00:33 10° W 06:07:54 43° NNW 06:15:07 10° NE daylight
13 Dec - 07:58:31 10° NW 08:02:19 14° NNW 08:06:04 10° N daylight
13 Dec - 13:46:45 10° N 13:49:33 13° NNE 13:52:18 10° NE daylight
13 Dec - 15:37:31 10° NW 15:43:32 45° NNE 15:49:27 10° E daylight
13 Dec - 17:30:58 10° WNW 17:36:55 46° SSW 17:42:57 10° SE daylight
13 Dec - 19:28:00 10° SW 19:30:52 13° SSW 19:33:48 10° S visible
14 Dec - 01:14:28 10° S 01:18:04 14° SSE 01:21:44 10° SE visible
14 Dec - 03:05:21 10° SW 03:12:31 42° SSE 03:19:50 10° E visible
14 Dec - 04:58:43 10° WSW 05:06:26 63° NNW 05:14:07 10° NE visible
14 Dec - 06:55:05 10° WNW 07:00:38 21° NNW 07:06:05 10° NNE daylight
14 Dec - 14:36:50 10° NNW 14:42:21 29° NNE 14:47:43 10° E daylight
14 Dec - 16:29:32 10° WNW 16:35:49 73° SSW 16:42:04 10° SE daylight
14 Dec - 18:25:06 10° WSW 18:29:27 19° SSW 18:33:52 10° SSE visible
15 Dec - 02:04:41 10° SSW 02:11:01 29° SSE 02:17:33 10° E visible
15 Dec - 03:57:15 10° WSW 04:04:59 90° SSE 04:12:52 10° ENE visible
15 Dec - 05:52:24 10° W 05:59:02 30° NNW 06:05:36 10° NNE daylight
15 Dec - 13:36:20 10° NNW 13:41:02 20° NNE 13:45:35 10° ENE daylight
15 Dec - 15:28:21 10° NW 15:34:45 73° NNE 15:40:59 10° ESE daylight
15 Dec - 17:22:52 10° W 17:28:11 29° SSW 17:33:32 10° SSE daylight
16 Dec - 01:04:22 10° SSW 01:09:28 20° SSE 01:14:45 10° ESE visible
16 Dec - 02:56:06 10° SW 03:03:34 63° SSE 03:11:18 10° ENE visible
16 Dec - 04:50:14 10° W 04:57:29 43° NNW 05:04:48 10° NE visible
16 Dec - 06:48:03 10° NW 06:52:03 15° NNW 06:55:59 10° N daylight
16 Dec - 12:36:09 10° N 12:39:33 14° NNE 12:42:52 10° NE daylight
16 Dec - 14:27:22 10° NW 14:33:38 47° NNE 14:39:38 10° ESE daylight
16 Dec - 16:21:01 10° W 16:27:02 45° SSW 16:32:58 10° SE daylight
16 Dec - 18:18:27 10° SW 18:20:56 12° SSW 18:23:26 10° S visible
17 Dec - 00:04:39 10° S 00:07:51 13° SSE 00:11:08 10° SE night (unlit)
17 Dec - 01:55:14 10° SW 02:02:09 42° SSE 02:09:23 10° E visible
17 Dec - 03:48:29 10° WSW 03:56:00 62° NNW 04:03:45 10° NE visible
17 Dec - 05:44:44 10° WNW 05:50:17 21° NNW 05:55:50 10° NNE daylight
17 Dec - 13:26:32 10° NNW 13:32:25 31° NNE 13:37:59 10° E daylight
17 Dec - 15:19:28 10° WNW 15:25:57 71° SSW 15:32:11 10° SE daylight
17 Dec - 17:15:17 10° WSW 17:19:33 19° SSW 17:23:48 10° SSE daylight
18 Dec - 00:54:41 10° SSW 01:00:44 29° SSE 01:07:04 10° E night (unlit)
18 Dec - 02:47:06 10° WSW 02:54:35 89° NNW 03:02:26 10° ENE visible
18 Dec - 04:42:08 10° W 04:48:38 29° NNW 04:55:15 10° NNE visible
18 Dec - 06:42:53 10° NNW 06:43:37 10° NNW 06:44:21 10° NNW daylight
18 Dec - 12:25:52 10° NNW 12:31:02 22° NNE 12:35:57 10° ENE daylight
18 Dec - 14:18:10 10° NW 14:24:51 75° NNE 14:31:10 10° ESE daylight
18 Dec - 16:12:53 10° W 16:18:17 28° SSW 16:23:36 10° SSE daylight
18 Dec - 23:54:29 10° SSW 23:59:15 19° SSE 00:04:14 10° ESE night (unlit)
19 Dec - 01:46:02 10° SW 01:53:12 63° SSE 02:00:49 10° ENE visible
19 Dec - 03:40:04 10° W 03:47:06 42° NNW 03:54:22 10° NE visible
19 Dec - 05:37:46 10° NW 05:41:42 14° NNW 05:45:40 10° N daylight
19 Dec - 11:25:28 10° NNW 11:29:29 16° NNE 11:33:23 10° ENE daylight
19 Dec - 13:17:02 10° NW 13:23:40 49° NNE 13:29:53 10° ESE daylight
19 Dec - 15:10:55 10° W 15:17:08 44° SSW 15:23:05 10° SE daylight
19 Dec - 17:08:41 10° SW 17:11:00 12° SSW 17:13:19 10° S daylight
19 Dec - 22:54:59 10° S 22:57:43 12° SSE 23:00:30 10° SE night (unlit)
20 Dec - 00:45:16 10° SW 00:51:51 42° SSE 00:58:53 10° E night (unlit)
20 Dec - 02:38:24 10° WSW 02:45:38 60° NNW 02:53:16 10° NE visible
20 Dec - 04:34:33 10° WNW 04:39:56 20° NNW 04:45:24 10° NNE visible
20 Dec - 10:25:41 10° N 10:27:46 11° NNE 10:29:49 10° NE daylight
20 Dec - 12:16:05 10° NW 12:22:23 33° NNE 12:28:17 10° E daylight
20 Dec - 14:09:14 10° WNW 14:16:01 70° SSW 14:22:22 10° SE daylight
20 Dec - 16:05:17 10° WSW 16:09:37 19° SSW 16:13:52 10° SSE daylight
20 Dec - 23:44:48 10° SSW 23:50:32 28° SSE 23:56:34 10° E night (unlit)
